Time,TemperatureF,DewpointF,PressureIn,WindDirection,WindDirectionDegrees,WindSpeedMPH,WindSpeedGustMPH,Humidity,HourlyPrecipIn,Conditions,Clouds,dailyrainin,SoftwareType,DateUTC
2013-06-14 00:00:00,67.4,67.4,29.63,East,82,0.0,0.0,100,0.00,,---,0.14,VWS V14.01,2013-06-14 04:00:00,
2013-06-14 00:01:00,67.6,67.6,29.65,East,82,0.0,0.0,100,0.00,,---,0.14,VWS V14.01,2013-06-14 04:01:00,
2013-06-14 00:05:00,67.6,67.6,29.63,East,82,0.0,0.0,100,0.00,,---,0.14,VWS V14.01,2013-06-14 04:05:00,
2013-06-14 00:06:00,67.8,67.8,29.65,East,82,0.0,0.0,100,0.00,,---,0.00,VWS V14.01,2013-06-14 04:06:00,
2013-06-14 00:10:00,67.6,67.6,29.63,East,82,0.0,0.0,100,0.00,,---,0.14,VWS V14.01,2013-06-14 04:10:00,
2013-06-14 00:11:00,67.6,67.6,29.65,East,82,0.0,0.0,100,0.00,,---,0.00,VWS V14.01,2013-06-14 04:11:00,
2013-06-14 00:15:00,67.4,67.4,29.64,East,82,0.0,0.0,100,0.00,,---,0.14,VWS V14.01,2013-06-14 04:15:00,
2013-06-14 00:16:00,67.8,67.8,29.65,East,82,0.0,0.0,100,0.00,,---,0.00,VWS V14.01,2013-06-14 04:16:00,
2013-06-14 00:20:00,67.4,67.4,29.64,East,82,0.0,0.0,100,0.00,,---,0.14,VWS V14.01,2013-06-14 04:20:00,
2013-06-14 00:21:00,67.8,67.8,29.65,ENE,78,0.0,0.0,100,0.00,,---,0.00,VWS V14.01,2013-06-14 04:21:00,
2013-06-14 00:25:00,67.4,67.4,29.64,East,82,0.0,0.0,100,0.00,,---,0.14,VWS V14.01,2013-06-14 04:25:00,
2013-06-14 00:26:00,67.6,67.6,29.65,ENE,78,0.0,0.0,100,0.00,,---,0.00,VWS V14.01,2013-06-14 04:26:00,
2013-06-14 00:30:00,67.3,67.3,29.64,East,82,0.0,0.0,100,0.00,,---,0.14,VWS V14.01,2013-06-14 04:30:00,
2013-06-14 00:31:00,67.6,67.6,29.66,NE,49,0.0,0.0,100,0.00,,---,0.00,VWS V14.01,2013-06-14 04:31:00,
2013-06-14 00:35:00,67.4,67.4,29.64,East,82,0.0,0.0,100,0.00,,---,0.14,VWS V14.01,2013-06-14 04:35:00,
2013-06-14 00:36:00,67.4,67.4,29.66,NE,45,0.0,0.0,100,0.00,,---,0.00,VWS V14.01,2013-06-14 04:36:00,
2013-06-14 00:40:00,67.4,67.4,29.64,East,82,0.0,0.0,100,0.00,,---,0.14,VWS V14.01,2013-06-14 04:40:00,
2013-06-14 00:41:00,67.3,67.3,29.66,NNE,20,0.0,1.0,100,0.00,,---,0.00,VWS V14.01,2013-06-14 04:41:00,
2013-06-14 00:45:00,67.4,67.4,29.65,East,82,0.0,0.0,100,0.00,,---,0.14,VWS V14.01,2013-06-14 04:45:00,
2013-06-14 00:46:00,67.1,67.1,29.66,NNE,20,0.0,0.0,100,0.00,,---,0.00,VWS V14.01,2013-06-14 04:46:00,
2013-06-14 00:50:00,67.4,67.4,29.65,East,82,0.0,0.0,100,0.00,,---,0.14,VWS V14.01,2013-06-14 04:50:00,
2013-06-14 00:51:00,67.1,67.1,29.66,North,11,0.0,0.0,100,0.00,,---,0.00,VWS V14.01,2013-06-14 04:51:00,
2013-06-14 00:55:00,67.6,67.6,29.65,East,82,0.0,0.0,100,0.00,,---,0.14,VWS V14.01,2013-06-14 04:55:00,
2013-06-14 00:56:00,67.1,67.1,29.66,North,11,0.0,0.0,100,0.00,,---,0.00,VWS V14.01,2013-06-14 04:56:00,
2013-06-14 01:00:00,67.6,67.6,29.65,East,82,0.0,0.0,100,0.00,,---,0.00,VWS V14.01,2013-06-14 05:00:00,
2013-06-14 01:01:00,67.1,67.1,29.67,North,11,0.0,0.0,100,0.00,,---,0.00,VWS V14.01,2013-06-14 05:01:00,
2013-06-14 01:05:00,67.8,67.8,29.65,East,82,0.0,0.0,100,0.00,,---,0.00,VWS V14.01,2013-06-14 05:05:00,
2013-06-14 01:06:00,67.1,67.1,29.67,North,11,0.0,0.0,100,0.00,,---,0.00,VWS V14.01,2013-06-14 05:06:00,
2013-06-14 01:10:00,67.6,67.6,29.65,East,82,0.0,0.0,100,0.00,,---,0.00,VWS V14.01,2013-06-14 05:10:00,
2013-06-14 01:11:00,66.9,66.9,29.67,North,11,0.0,0.0,100,0.00,,---,0.00,VWS V14.01,2013-06-14 05:11:00,
2013-06-14 01:15:00,67.8,67.8,29.65,East,82,0.0,0.0,100,0.00,,---,0.00,VWS V14.01,2013-06-14 05:15:00,
2013-06-14 01:16:00,66.9,66.9,29.67,North,11,0.0,0.0,100,0.00,,---,0.00,VWS V14.01,2013-06-14 05:16:00,
2013-06-14 01:20:00,67.8,67.8,29.65,ENE,78,0.0,0.0,100,0.00,,---,0.00,VWS V14.01,2013-06-14 05:20:00,
2013-06-14 01:21:00,66.9,66.9,29.67,North,3,0.0,0.0,100,0.00,,---,0.00,VWS V14.01,2013-06-14 05:21:00,
2013-06-14 01:25:00,67.6,67.6,29.65,ENE,78,0.0,0.0,100,0.00,,---,0.00,VWS V14.01,2013-06-14 05:25:00,
2013-06-14 01:26:00,66.8,66.8,29.67,North,3,0.0,0.0,100,0.00,,---,0.00,VWS V14.01,2013-06-14 05:26:00,
2013-06-14 01:30:00,67.6,67.6,29.66,NE,49,0.0,0.0,100,0.00,,---,0.00,VWS V14.01,2013-06-14 05:30:00,
2013-06-14 01:31:00,66.8,66.8,29.67,North,3,0.0,0.0,100,0.00,,---,0.00,VWS V14.01,2013-06-14 05:31:00,
2013-06-14 01:35:00,67.4,67.4,29.66,NE,45,0.0,0.0,100,0.00,,---,0.00,VWS V14.01,2013-06-14 05:35:00,
2013-06-14 01:36:00,66.6,66.6,29.67,North,3,0.0,0.0,100,0.00,,---,0.00,VWS V14.01,2013-06-14 05:36:00,
2013-06-14 01:40:00,67.3,67.3,29.66,NNE,20,0.0,1.0,100,0.00,,---,0.00,VWS V14.01,2013-06-14 05:40:00,
2013-06-14 01:41:00,66.4,66.4,29.67,North,4,0.0,0.0,100,0.00,,---,0.00,VWS V14.01,2013-06-14 05:41:00,
2013-06-14 01:45:00,67.1,67.1,29.66,NNE,20,0.0,0.0,100,0.00,,---,0.00,VWS V14.01,2013-06-14 05:45:00,
2013-06-14 01:46:00,66.3,66.3,29.67,North,4,0.0,0.0,100,0.00,,---,0.00,VWS V14.01,2013-06-14 05:46:00,
2013-06-14 01:50:00,67.1,67.1,29.66,North,11,0.0,1.0,100,0.00,,---,0.00,VWS V14.01,2013-06-14 05:50:00,
2013-06-14 01:51:00,66.1,66.1,29.67,NNE,13,0.0,0.0,100,0.00,,---,0.00,VWS V14.01,2013-06-14 05:51:00,
2013-06-14 01:56:00,66.0,66.0,29.67,NNE,13,0.0,0.0,100,0.00,,---,0.00,VWS V14.01,2013-06-14 05:56:00,
2013-06-14 02:00:00,67.1,67.1,29.67,North,11,0.0,0.0,100,0.00,,---,0.00,VWS V14.01,2013-06-14 06:00:00,
2013-06-14 02:01:00,66.0,66.0,29.68,NNE,13,0.0,0.0,100,0.00,,---,0.00,VWS V14.01,2013-06-14 06:01:00,
2013-06-14 02:05:00,67.1,67.1,29.67,North,11,0.0,0.0,100,0.00,,---,0.00,VWS V14.01,2013-06-14 06:05:00,
2013-06-14 02:06:00,65.8,65.8,29.68,NNE,13,0.0,0.0,100,0.00,,---,0.00,VWS V14.01,2013-06-14 06:06:00,
2013-06-14 02:10:00,66.9,66.9,29.67,North,11,0.0,0.0,100,0.00,,---,0.00,VWS V14.01,2013-06-14 06:10:00,
2013-06-14 02:11:00,65.8,65.8,29.68,NNE,13,0.0,0.0,100,0.00,,---,0.00,VWS V14.01,2013-06-14 06:11:00,
2013-06-14 02:15:00,66.9,66.9,29.67,North,11,0.0,0.0,100,0.00,,---,0.00,VWS V14.01,2013-06-14 06:15:00,
2013-06-14 02:16:00,65.5,65.5,29.67,NNE,13,0.0,0.0,100,0.00,,---,0.00,VWS V14.01,2013-06-14 06:16:00,
2013-06-14 02:20:00,66.9,66.9,29.67,North,3,0.0,0.0,100,0.00,,---,0.00,VWS V14.01,2013-06-14 06:20:00,
2013-06-14 02:21:00,65.5,65.5,29.67,NNE,13,0.0,0.0,100,0.00,,---,0.00,VWS V14.01,2013-06-14 06:21:00,
2013-06-14 02:25:00,66.8,66.8,29.67,North,3,0.0,0.0,100,0.00,,---,0.00,VWS V14.01,2013-06-14 06:25:00,
2013-06-14 02:26:00,65.5,65.5,29.67,NNE,13,0.0,0.0,100,0.00,,---,0.00,VWS V14.01,2013-06-14 06:26:00,
2013-06-14 02:30:00,66.8,66.8,29.67,North,3,0.0,0.0,100,0.00,,---,0.00,VWS V14.01,2013-06-14 06:30:00,
2013-06-14 02:31:00,65.0,65.0,29.67,NNE,16,0.0,1.0,100,0.00,,---,0.00,VWS V14.01,2013-06-14 06:31:00,
2013-06-14 02:35:00,66.6,66.6,29.67,North,3,0.0,0.0,100,0.00,,---,0.00,VWS V14.01,2013-06-14 06:35:00,
2013-06-14 02:36:00,64.7,64.7,29.67,NNE,16,0.0,0.0,100,0.00,,---,0.00,VWS V14.01,2013-06-14 06:36:00,
2013-06-14 02:40:00,66.4,66.4,29.67,North,4,0.0,0.0,100,0.00,,---,0.00,VWS V14.01,2013-06-14 06:40:00,
2013-06-14 02:41:00,64.3,64.3,29.67,NNW,330,0.0,2.0,100,0.00,,---,0.00,VWS V14.01,2013-06-14 06:41:00,
2013-06-14 02:45:00,66.3,66.3,29.67,North,4,0.0,0.0,100,0.00,,---,0.00,VWS V14.01,2013-06-14 06:45:00,
2013-06-14 02:46:00,63.9,63.9,29.67,North,1,0.0,1.0,100,0.00,,---,0.00,VWS V14.01,2013-06-14 06:46:00,
2013-06-14 02:50:00,66.1,66.1,29.67,NNE,13,0.0,0.0,100,0.00,,---,0.00,VWS V14.01,2013-06-14 06:50:00,
2013-06-14 02:51:00,63.7,63.7,29.67,North,1,0.0,0.0,100,0.00,,---,0.00,VWS V14.01,2013-06-14 06:51:00,
2013-06-14 02:55:00,66.0,66.0,29.67,NNE,13,0.0,0.0,100,0.00,,---,0.00,VWS V14.01,2013-06-14 06:55:00,
2013-06-14 02:56:00,63.4,63.4,29.67,North,6,0.0,0.0,100,0.00,,---,0.00,VWS V14.01,2013-06-14 06:56:00,
2013-06-14 03:00:00,66.0,66.0,29.68,NNE,13,0.0,0.0,100,0.00,,---,0.00,VWS V14.01,2013-06-14 07:00:00,
2013-06-14 03:01:00,63.4,63.4,29.68,North,6,0.0,0.0,100,0.00,,---,0.00,VWS V14.01,2013-06-14 07:01:00,
2013-06-14 03:05:00,65.8,65.8,29.68,NNE,13,0.0,0.0,100,0.00,,---,0.00,VWS V14.01,2013-06-14 07:05:00,
2013-06-14 03:06:00,63.2,63.2,29.68,North,6,0.0,0.0,100,0.00,,---,0.00,VWS V14.01,2013-06-14 07:06:00,
2013-06-14 03:10:00,65.8,65.8,29.68,NNE,13,0.0,0.0,100,0.00,,---,0.00,VWS V14.01,2013-06-14 07:10:00,
2013-06-14 03:11:00,63.1,63.1,29.68,North,6,0.0,0.0,100,0.00,,---,0.00,VWS V14.01,2013-06-14 07:11:00,
2013-06-14 03:15:00,65.5,65.5,29.67,NNE,13,0.0,0.0,100,0.00,,---,0.00,VWS V14.01,2013-06-14 07:15:00,
2013-06-14 03:16:00,63.1,63.1,29.68,North,6,0.0,0.0,100,0.00,,---,0.00,VWS V14.01,2013-06-14 07:16:00,
2013-06-14 03:20:00,65.5,65.5,29.67,NNE,13,0.0,0.0,100,0.00,,---,0.00,VWS V14.01,2013-06-14 07:20:00,
2013-06-14 03:21:00,62.9,62.9,29.68,North,4,0.0,0.0,100,0.00,,---,0.00,VWS V14.01,2013-06-14 07:21:00,
2013-06-14 03:25:00,65.3,65.3,29.67,NNE,13,0.0,0.0,100,0.00,,---,0.00,VWS V14.01,2013-06-14 07:25:00,
2013-06-14 03:26:00,62.9,62.9,29.68,North,4,0.0,0.0,100,0.00,,---,0.00,VWS V14.01,2013-06-14 07:26:00,
2013-06-14 03:30:00,65.0,65.0,29.67,NNE,16,0.0,1.0,100,0.00,,---,0.00,VWS V14.01,2013-06-14 07:30:00,
2013-06-14 03:31:00,62.7,62.7,29.68,North,4,0.0,0.0,100,0.00,,---,0.00,VWS V14.01,2013-06-14 07:31:00,
2013-06-14 03:35:00,64.7,64.7,29.67,NNE,16,0.0,0.0,100,0.00,,---,0.00,VWS V14.01,2013-06-14 07:35:00,
2013-06-14 03:36:00,62.4,62.4,29.68,North,4,0.0,0.0,100,0.00,,---,0.00,VWS V14.01,2013-06-14 07:36:00,
2013-06-14 03:40:00,64.3,64.3,29.67,NNW,330,0.0,2.0,100,0.00,,---,0.00,VWS V14.01,2013-06-14 07:40:00,
2013-06-14 03:41:00,62.3,62.3,29.68,North,4,0.0,0.0,100,0.00,,---,0.00,VWS V14.01,2013-06-14 07:41:00,
2013-06-14 03:45:00,63.9,63.9,29.67,North,1,0.0,1.0,100,0.00,,---,0.00,VWS V14.01,2013-06-14 07:45:00,
2013-06-14 03:46:00,62.1,62.1,29.68,North,4,0.0,0.0,100,0.00,,---,0.00,VWS V14.01,2013-06-14 07:46:00,
2013-06-14 03:50:00,63.7,63.7,29.67,North,1,0.0,0.0,100,0.00,,---,0.00,VWS V14.01,2013-06-14 07:50:00,
2013-06-14 03:51:00,62.1,62.1,29.68,North,4,0.0,0.0,100,0.00,,---,0.00,VWS V14.01,2013-06-14 07:51:00,
2013-06-14 03:55:00,63.4,63.4,29.67,North,6,0.0,0.0,100,0.00,,---,0.00,VWS V14.01,2013-06-14 07:55:00,
2013-06-14 03:56:00,62.1,62.1,29.68,North,4,0.0,0.0,100,0.00,,---,0.00,VWS V14.01,2013-06-14 07:56:00,
2013-06-14 04:00:00,63.4,63.4,29.68,North,6,0.0,0.0,100,0.00,,---,0.00,VWS V14.01,2013-06-14 08:00:00,
2013-06-14 04:01:00,62.1,62.1,29.68,North,4,0.0,0.0,100,0.00,,---,0.00,VWS V14.01,2013-06-14 08:01:00,
2013-06-14 04:05:00,63.2,63.2,29.68,North,6,0.0,0.0,100,0.00,,---,0.00,VWS V14.01,2013-06-14 08:05:00,
2013-06-14 04:06:00,62.0,62.0,29.68,North,4,0.0,0.0,100,0.00,,---,0.00,VWS V14.01,2013-06-14 08:06:00,
2013-06-14 04:10:00,63.1,63.1,29.68,North,6,0.0,0.0,100,0.00,,---,0.00,VWS V14.01,2013-06-14 08:10:00,
2013-06-14 04:11:00,61.8,61.8,29.68,North,4,0.0,0.0,100,0.00,,---,0.00,VWS V14.01,2013-06-14 08:11:00,
2013-06-14 04:15:00,63.1,63.1,29.68,North,6,0.0,0.0,100,0.00,,---,0.00,VWS V14.01,2013-06-14 08:15:00,
2013-06-14 04:16:00,61.6,61.6,29.68,North,4,0.0,0.0,100,0.00,,---,0.00,VWS V14.01,2013-06-14 08:16:00,
2013-06-14 04:20:00,62.9,62.9,29.68,North,4,0.0,0.0,100,0.00,,---,0.00,VWS V14.01,2013-06-14 08:20:00,
2013-06-14 04:21:00,61.5,61.5,29.68,North,4,0.0,0.0,100,0.00,,---,0.00,VWS V14.01,2013-06-14 08:21:00,
2013-06-14 04:25:00,62.9,62.9,29.68,North,4,0.0,0.0,100,0.00,,---,0.00,VWS V14.01,2013-06-14 08:25:00,
2013-06-14 04:26:00,61.5,61.5,29.68,North,4,0.0,0.0,100,0.00,,---,0.00,VWS V14.01,2013-06-14 08:26:00,
2013-06-14 04:30:00,61.3,61.3,29.68,North,4,0.0,0.0,100,0.00,,---,0.00,VWS V14.01,2013-06-14 08:30:00,
2013-06-14 04:35:00,61.2,61.2,29.68,North,4,0.0,0.0,100,0.00,,---,0.00,VWS V14.01,2013-06-14 08:35:00,
2013-06-14 04:40:00,61.0,61.0,29.68,North,4,0.0,0.0,100,0.00,,---,0.00,VWS V14.01,2013-06-14 08:40:00,
2013-06-14 04:45:00,60.9,60.9,29.68,North,4,0.0,0.0,100,0.00,,---,0.00,VWS V14.01,2013-06-14 08:45:00,
2013-06-14 04:50:00,60.7,60.7,29.68,North,4,0.0,0.0,100,0.00,,---,0.00,VWS V14.01,2013-06-14 08:50:00,
2013-06-14 04:55:00,60.7,60.7,29.68,North,4,0.0,0.0,100,0.00,,---,0.00,VWS V14.01,2013-06-14 08:55:00,
2013-06-14 05:00:00,60.5,60.5,29.68,North,4,0.0,0.0,100,0.00,,---,0.00,VWS V14.01,2013-06-14 09:00:00,
2013-06-14 05:05:00,60.5,60.5,29.68,North,4,0.0,0.0,100,0.00,,---,0.00,VWS V14.01,2013-06-14 09:05:00,
2013-06-14 05:10:00,60.5,60.5,29.68,North,4,0.0,0.0,100,0.00,,---,0.00,VWS V14.01,2013-06-14 09:10:00,
2013-06-14 05:15:00,60.5,60.5,29.70,North,4,0.0,0.0,100,0.00,,---,0.00,VWS V14.01,2013-06-14 09:15:00,
2013-06-14 05:20:00,60.5,60.5,29.70,North,4,0.0,0.0,100,0.00,,---,0.00,VWS V14.01,2013-06-14 09:20:00,
2013-06-14 05:25:00,60.4,60.4,29.70,North,4,0.0,0.0,100,0.00,,---,0.00,VWS V14.01,2013-06-14 09:25:00,
2013-06-14 05:30:00,60.4,60.4,29.69,North,4,0.0,0.0,100,0.00,,---,0.00,VWS V14.01,2013-06-14 09:30:00,
2013-06-14 05:35:00,60.5,60.5,29.69,North,4,0.0,0.0,100,0.00,,---,0.00,VWS V14.01,2013-06-14 09:35:00,
2013-06-14 05:40:00,60.5,60.5,29.69,North,4,0.0,0.0,100,0.00,,---,0.00,VWS V14.01,2013-06-14 09:40:00,
2013-06-14 05:45:00,60.5,60.5,29.70,North,4,0.0,0.0,100,0.00,,---,0.00,VWS V14.01,2013-06-14 09:45:00,
2013-06-14 05:50:00,60.7,60.7,29.70,North,4,0.0,0.0,100,0.00,,---,0.00,VWS V14.01,2013-06-14 09:50:00,
2013-06-14 05:55:00,60.7,60.7,29.70,North,4,0.0,0.0,100,0.00,,---,0.00,VWS V14.01,2013-06-14 09:55:00,
2013-06-14 06:00:00,60.5,60.5,29.71,North,4,0.0,0.0,100,0.00,,---,0.00,VWS V14.01,2013-06-14 10:00:00,
2013-06-14 06:05:00,60.4,60.4,29.71,North,4,0.0,0.0,100,0.00,,---,0.00,VWS V14.01,2013-06-14 10:05:00,
2013-06-14 06:10:00,60.2,60.2,29.71,North,4,0.0,0.0,100,0.00,,---,0.00,VWS V14.01,2013-06-14 10:10:00,
2013-06-14 06:15:00,60.2,60.2,29.72,North,4,0.0,0.0,100,0.00,,---,0.00,VWS V14.01,2013-06-14 10:15:00,
2013-06-14 06:20:00,60.1,60.1,29.72,North,4,0.0,0.0,100,0.00,,---,0.00,VWS V14.01,2013-06-14 10:20:00,
2013-06-14 06:25:00,60.1,60.1,29.72,North,4,0.0,0.0,100,0.00,,---,0.00,VWS V14.01,2013-06-14 10:25:00,
2013-06-14 06:30:00,59.9,59.9,29.72,North,4,0.0,0.0,100,0.01,,---,0.01,VWS V14.01,2013-06-14 10:30:00,
2013-06-14 06:35:00,59.9,59.9,29.72,North,4,0.0,0.0,100,0.01,,---,0.01,VWS V14.01,2013-06-14 10:35:00,
2013-06-14 06:40:00,59.9,59.9,29.72,North,4,0.0,0.0,100,0.01,,---,0.01,VWS V14.01,2013-06-14 10:40:00,
2013-06-14 06:45:00,59.9,59.9,29.72,North,4,0.0,0.0,100,0.01,,---,0.01,VWS V14.01,2013-06-14 10:45:00,
2013-06-14 06:50:00,59.9,59.9,29.72,North,4,0.0,0.0,100,0.01,,---,0.01,VWS V14.01,2013-06-14 10:50:00,
2013-06-14 06:55:00,60.1,60.1,29.72,North,4,0.0,0.0,100,0.01,,---,0.01,VWS V14.01,2013-06-14 10:55:00,
2013-06-14 07:00:00,60.2,60.2,29.73,North,4,0.0,0.0,100,0.01,,---,0.01,VWS V14.01,2013-06-14 11:00:00,
2013-06-14 07:05:00,60.4,60.4,29.73,North,4,0.0,0.0,100,0.01,,---,0.01,VWS V14.01,2013-06-14 11:05:00,
2013-06-14 07:10:00,60.5,60.5,29.73,North,4,0.0,0.0,100,0.01,,---,0.01,VWS V14.01,2013-06-14 11:10:00,
2013-06-14 07:15:00,60.5,60.5,29.73,North,4,0.0,0.0,100,0.01,,---,0.01,VWS V14.01,2013-06-14 11:15:00,
2013-06-14 07:20:00,60.9,60.9,29.73,North,4,0.0,0.0,100,0.01,,---,0.01,VWS V14.01,2013-06-14 11:20:00,
2013-06-14 07:25:00,61.0,61.0,29.73,North,4,0.0,0.0,100,0.01,,---,0.01,VWS V14.01,2013-06-14 11:25:00,
2013-06-14 07:30:00,61.2,61.2,29.73,North,4,0.0,0.0,100,0.01,,---,0.01,VWS V14.01,2013-06-14 11:30:00,
2013-06-14 07:35:00,61.3,61.3,29.73,North,4,0.0,0.0,100,0.00,,---,0.01,VWS V14.01,2013-06-14 11:35:00,
2013-06-14 07:40:00,61.5,61.5,29.73,North,4,0.0,0.0,100,0.00,,---,0.01,VWS V14.01,2013-06-14 11:40:00,
2013-06-14 07:45:00,61.6,61.6,29.73,North,4,0.0,0.0,100,0.00,,---,0.01,VWS V14.01,2013-06-14 11:45:00,
2013-06-14 07:50:00,61.8,61.8,29.73,North,6,0.0,1.0,100,0.00,,---,0.01,VWS V14.01,2013-06-14 11:50:00,
2013-06-14 07:55:00,61.8,61.8,29.73,North,1,0.0,2.0,100,0.00,,---,0.01,VWS V14.01,2013-06-14 11:55:00,
2013-06-14 08:00:00,62.1,62.1,29.74,North,1,0.0,0.0,100,0.00,,---,0.01,VWS V14.01,2013-06-14 12:00:00,
2013-06-14 08:05:00,62.1,62.1,29.74,North,0,0.0,0.0,100,0.00,,---,0.01,VWS V14.01,2013-06-14 12:05:00,
2013-06-14 08:10:00,62.1,62.1,29.74,North,0,0.0,0.0,100,0.00,,---,0.01,VWS V14.01,2013-06-14 12:10:00,
2013-06-14 08:15:00,62.3,62.3,29.75,North,0,1.0,5.0,100,0.00,,---,0.01,VWS V14.01,2013-06-14 12:15:00,
2013-06-14 08:20:00,62.3,62.3,29.75,North,354,0.0,0.0,100,0.00,,---,0.01,VWS V14.01,2013-06-14 12:20:00,
2013-06-14 08:25:00,62.4,62.4,29.75,North,8,0.0,2.0,100,0.00,,---,0.01,VWS V14.01,2013-06-14 12:25:00,
2013-06-14 08:30:00,62.7,62.7,29.76,North,8,0.0,0.0,100,0.00,,---,0.01,VWS V14.01,2013-06-14 12:30:00,
2013-06-14 08:35:00,62.9,62.9,29.76,North,8,0.0,0.0,100,0.00,,---,0.01,VWS V14.01,2013-06-14 12:35:00,
2013-06-14 08:40:00,63.1,63.1,29.76,North,7,0.0,1.0,100,0.00,,---,0.01,VWS V14.01,2013-06-14 12:40:00,
2013-06-14 08:45:00,63.2,63.2,29.77,North,7,0.0,0.0,100,0.00,,---,0.01,VWS V14.01,2013-06-14 12:45:00,
2013-06-14 08:50:00,63.4,63.4,29.77,North,356,0.0,0.0,100,0.00,,---,0.01,VWS V14.01,2013-06-14 12:50:00,
2013-06-14 08:55:00,63.9,63.9,29.77,North,0,3.0,3.0,100,0.00,,---,0.01,VWS V14.01,2013-06-14 12:55:00,
2013-06-14 09:00:00,64.0,64.0,29.78,North,0,0.0,4.0,100,0.00,,---,0.01,VWS V14.01,2013-06-14 13:00:00,
2013-06-14 09:05:00,64.0,64.0,29.78,North,0,0.0,0.0,100,0.00,,---,0.01,VWS V14.01,2013-06-14 13:05:00,
2013-06-14 09:10:00,63.9,63.9,29.78,NNE,13,0.0,2.0,100,0.00,,---,0.01,VWS V14.01,2013-06-14 13:10:00,
2013-06-14 09:15:00,63.5,63.5,29.78,NNE,20,0.0,6.0,100,0.00,,---,0.01,VWS V14.01,2013-06-14 13:15:00,
2013-06-14 09:20:00,63.7,63.7,29.78,North,7,0.0,6.0,100,0.00,,---,0.01,VWS V14.01,2013-06-14 13:20:00,
2013-06-14 09:25:00,63.9,63.9,29.78,NNW,342,0.0,5.0,100,0.00,,---,0.01,VWS V14.01,2013-06-14 13:25:00,
2013-06-14 09:30:00,64.5,64.5,29.78,North,3,0.0,1.0,100,0.00,,---,0.01,VWS V14.01,2013-06-14 13:30:00,
2013-06-14 09:35:00,64.7,64.7,29.78,North,0,0.0,1.0,100,0.00,,---,0.01,VWS V14.01,2013-06-14 13:35:00,
2013-06-14 09:40:00,64.3,64.3,29.78,NNE,21,2.0,3.0,100,0.00,,---,0.01,VWS V14.01,2013-06-14 13:40:00,
2013-06-14 09:45:00,64.2,64.2,29.79,North,0,0.0,7.0,100,0.00,,---,0.01,VWS V14.01,2013-06-14 13:45:00,
2013-06-14 09:50:00,65.2,64.9,29.79,North,8,1.0,6.0,99,0.00,,---,0.01,VWS V14.01,2013-06-14 13:50:00,
2013-06-14 09:55:00,66.0,65.7,29.79,North,0,0.0,5.0,99,0.00,,---,0.01,VWS V14.01,2013-06-14 13:55:00,
2013-06-14 10:00:00,66.9,66.6,29.80,NE,48,0.0,4.0,99,0.00,,---,0.01,VWS V14.01,2013-06-14 14:00:00,
2013-06-14 10:05:00,67.8,66.9,29.80,NNW,330,3.0,3.0,97,0.00,,---,0.01,VWS V14.01,2013-06-14 14:05:00,
2013-06-14 10:10:00,68.6,67.4,29.80,North,1,0.0,2.0,96,0.00,,---,0.01,VWS V14.01,2013-06-14 14:10:00,
2013-06-14 10:15:00,69.3,67.2,29.80,North,11,2.0,2.0,93,0.00,,---,0.01,VWS V14.01,2013-06-14 14:15:00,
2013-06-14 10:20:00,70.3,63.8,29.80,NNE,21,0.0,3.0,80,0.00,,---,0.01,VWS V14.01,2013-06-14 14:20:00,
2013-06-14 10:25:00,70.9,61.0,29.80,North,356,0.0,5.0,71,0.00,,---,0.01,VWS V14.01,2013-06-14 14:25:00,
2013-06-14 10:30:00,71.6,61.7,29.80,NNW,340,0.0,4.0,71,0.00,,---,0.01,VWS V14.01,2013-06-14 14:30:00,
2013-06-14 10:35:00,71.8,60.3,29.80,NNW,346,4.0,10.0,67,0.00,,---,0.01,VWS V14.01,2013-06-14 14:35:00,
2013-06-14 10:40:00,72.7,61.1,29.80,North,11,0.0,6.0,67,0.00,,---,0.01,VWS V14.01,2013-06-14 14:40:00,
2013-06-14 10:45:00,73.2,59.9,29.80,North,1,0.0,4.0,63,0.00,,---,0.01,VWS V14.01,2013-06-14 14:45:00,
2013-06-14 10:50:00,73.5,59.2,29.80,North,0,0.0,5.0,61,0.00,,---,0.01,VWS V14.01,2013-06-14 14:50:00,
2013-06-14 10:55:00,73.5,59.2,29.80,NNE,14,2.0,2.0,61,0.00,,---,0.01,VWS V14.01,2013-06-14 14:55:00,
2013-06-14 11:00:00,73.9,58.2,29.80,NNE,13,0.0,12.0,58,0.00,,---,0.01,VWS V14.01,2013-06-14 15:00:00,
2013-06-14 11:05:00,74.0,57.3,29.80,NNW,339,0.0,6.0,56,0.00,,---,0.01,VWS V14.01,2013-06-14 15:05:00,
2013-06-14 11:10:00,74.4,58.7,29.80,North,350,0.0,2.0,58,0.00,,---,0.01,VWS V14.01,2013-06-14 15:10:00,
2013-06-14 11:15:00,75.3,59.5,29.81,North,0,0.0,2.0,58,0.00,,---,0.01,VWS V14.01,2013-06-14 15:15:00,
2013-06-14 11:20:00,75.6,57.8,29.81,NNW,346,0.0,2.0,54,0.00,,---,0.01,VWS V14.01,2013-06-14 15:20:00,
2013-06-14 11:25:00,75.1,56.8,29.81,North,359,0.0,8.0,53,0.00,,---,0.01,VWS V14.01,2013-06-14 15:25:00,
2013-06-14 11:30:00,75.1,56.8,29.81,North,0,2.0,7.0,53,0.00,,---,0.01,VWS V14.01,2013-06-14 15:30:00,
2013-06-14 11:35:00,75.4,57.6,29.81,North,359,0.0,1.0,54,0.00,,---,0.01,VWS V14.01,2013-06-14 15:35:00,
2013-06-14 11:40:00,75.3,56.5,29.81,NW,318,0.0,6.0,52,0.00,,---,0.01,VWS V14.01,2013-06-14 15:40:00,
2013-06-14 11:45:00,75.8,56.9,29.81,North,6,0.0,7.0,52,0.00,,---,0.01,VWS V14.01,2013-06-14 15:45:00,
2013-06-14 11:50:00,75.6,55.1,29.81,West,274,0.0,7.0,49,0.00,,---,0.01,VWS V14.01,2013-06-14 15:50:00,
2013-06-14 11:55:00,76.0,57.1,29.81,NW,318,2.0,2.0,52,0.00,,---,0.01,VWS V14.01,2013-06-14 15:55:00,
2013-06-14 12:00:00,76.3,55.8,29.82,North,11,1.0,5.0,49,0.00,,---,0.01,VWS V14.01,2013-06-14 16:00:00,
2013-06-14 12:05:00,76.5,55.9,29.82,North,7,0.0,7.0,49,0.00,,---,0.01,VWS V14.01,2013-06-14 16:05:00,
2013-06-14 12:10:00,76.7,57.2,29.82,North,3,0.0,2.0,51,0.00,,---,0.01,VWS V14.01,2013-06-14 16:10:00,
2013-06-14 12:15:00,76.8,56.2,29.82,North,0,0.0,6.0,49,0.00,,---,0.01,VWS V14.01,2013-06-14 16:15:00,
2013-06-14 12:20:00,77.2,56.6,29.82,North,352,7.0,7.0,49,0.00,,---,0.01,VWS V14.01,2013-06-14 16:20:00,
2013-06-14 12:25:00,76.7,55.5,29.82,NNW,342,0.0,7.0,48,0.00,,---,0.01,VWS V14.01,2013-06-14 16:25:00,
2013-06-14 12:30:00,77.0,55.8,29.82,North,3,0.0,4.0,48,0.00,,---,0.01,VWS V14.01,2013-06-14 16:30:00,
2013-06-14 12:35:00,76.8,56.2,29.82,North,4,0.0,5.0,49,0.00,,---,0.01,VWS V14.01,2013-06-14 16:35:00,
2013-06-14 12:40:00,76.5,56.5,29.82,NNE,16,0.0,2.0,50,0.00,,---,0.01,VWS V14.01,2013-06-14 16:40:00,
2013-06-14 12:45:00,76.8,55.1,29.82,North,1,1.0,11.0,47,0.00,,---,0.01,VWS V14.01,2013-06-14 16:45:00,
2013-06-14 12:50:00,76.8,55.7,29.82,NNW,329,0.0,7.0,48,0.00,,---,0.01,VWS V14.01,2013-06-14 16:50:00,
2013-06-14 12:55:00,77.2,58.2,29.82,WNW,295,0.0,6.0,52,0.00,,---,0.01,VWS V14.01,2013-06-14 16:55:00,
2013-06-14 13:00:00,77.9,58.3,29.83,NNE,21,0.0,2.0,51,0.00,,---,0.01,VWS V14.01,2013-06-14 17:00:00,
2013-06-14 13:05:00,78.3,56.4,29.83,NNW,346,0.0,7.0,47,0.00,,---,0.01,VWS V14.01,2013-06-14 17:05:00,
2013-06-14 13:10:00,78.1,56.2,29.83,North,359,0.0,5.0,47,0.00,,---,0.01,VWS V14.01,2013-06-14 17:10:00,
2013-06-14 13:15:00,77.4,55.6,29.83,NNE,18,0.0,5.0,47,0.00,,---,0.01,VWS V14.01,2013-06-14 17:15:00,
2013-06-14 13:20:00,76.5,55.9,29.83,NNW,340,0.0,3.0,49,0.00,,---,0.01,VWS V14.01,2013-06-14 17:20:00,
2013-06-14 13:25:00,76.8,57.3,29.83,North,359,1.0,1.0,51,0.00,,---,0.01,VWS V14.01,2013-06-14 17:25:00,
2013-06-14 13:30:00,77.2,56.0,29.83,North,0,0.0,10.0,48,0.00,,---,0.01,VWS V14.01,2013-06-14 17:30:00,
2013-06-14 13:35:00,77.6,55.8,29.83,North,0,0.0,4.0,47,0.00,,---,0.01,VWS V14.01,2013-06-14 17:35:00,
2013-06-14 13:40:00,77.7,56.5,29.83,NNE,20,0.0,6.0,48,0.00,,---,0.01,VWS V14.01,2013-06-14 17:40:00,
2013-06-14 13:45:00,78.5,56.6,29.83,North,352,0.0,5.0,47,0.00,,---,0.01,VWS V14.01,2013-06-14 17:45:00,
2013-06-14 13:50:00,78.8,56.9,29.83,NNW,330,0.0,7.0,47,0.00,,---,0.01,VWS V14.01,2013-06-14 17:50:00,
2013-06-14 13:55:00,78.8,56.9,29.83,NNW,339,0.0,12.0,47,0.00,,---,0.01,VWS V14.01,2013-06-14 17:55:00,
2013-06-14 14:00:00,78.3,55.8,29.83,WNW,291,0.0,10.0,46,0.00,,---,0.01,VWS V14.01,2013-06-14 18:00:00,
2013-06-14 14:05:00,78.3,57.0,29.83,NNW,333,0.0,0.0,48,0.00,,---,0.01,VWS V14.01,2013-06-14 18:05:00,
2013-06-14 14:10:00,78.1,55.0,29.83,NNW,330,0.0,2.0,45,0.00,,---,0.01,VWS V14.01,2013-06-14 18:10:00,
2013-06-14 14:15:00,78.1,56.8,29.83,NNE,13,0.0,5.0,48,0.00,,---,0.01,VWS V14.01,2013-06-14 18:15:00,
2013-06-14 14:20:00,78.5,55.4,29.83,NNE,32,0.0,2.0,45,0.00,,---,0.01,VWS V14.01,2013-06-14 18:20:00,
2013-06-14 14:25:00,79.0,55.9,29.83,NNW,339,0.0,5.0,45,0.00,,---,0.01,VWS V14.01,2013-06-14 18:25:00,
2013-06-14 14:30:00,78.8,54.4,29.83,North,0,0.0,7.0,43,0.00,,---,0.01,VWS V14.01,2013-06-14 18:30:00,
2013-06-14 14:35:00,78.6,55.5,29.83,WNW,284,0.0,7.0,45,0.00,,---,0.01,VWS V14.01,2013-06-14 18:35:00,
2013-06-14 14:40:00,79.2,56.7,29.83,North,4,0.0,5.0,46,0.00,,---,0.01,VWS V14.01,2013-06-14 18:40:00,
2013-06-14 14:45:00,79.6,57.6,29.83,NNW,336,0.0,0.0,47,0.00,,---,0.01,VWS V14.01,2013-06-14 18:45:00,
2013-06-14 14:50:00,79.2,56.0,29.83,North,352,0.0,0.0,45,0.00,,---,0.01,VWS V14.01,2013-06-14 18:50:00,
2013-06-14 14:55:00,78.3,55.2,29.83,North,0,0.0,2.0,45,0.00,,---,0.01,VWS V14.01,2013-06-14 18:55:00,
2013-06-14 15:00:00,77.9,57.2,29.84,North,350,0.0,0.0,49,0.00,,---,0.01,VWS V14.01,2013-06-14 19:00:00,
2013-06-14 15:05:00,77.2,54.8,29.84,North,359,7.0,7.0,46,0.00,,---,0.01,VWS V14.01,2013-06-14 19:05:00,
2013-06-14 15:10:00,76.5,56.5,29.84,NW,325,5.0,5.0,50,0.00,,---,0.01,VWS V14.01,2013-06-14 19:10:00,
2013-06-14 15:15:00,76.3,56.3,29.84,West,263,0.0,1.0,50,0.00,,---,0.01,VWS V14.01,2013-06-14 19:15:00,
2013-06-14 15:20:00,77.2,57.7,29.84,NNE,27,0.0,0.0,51,0.00,,---,0.01,VWS V14.01,2013-06-14 19:20:00,
2013-06-14 15:25:00,77.7,57.0,29.84,North,3,0.0,5.0,49,0.00,,---,0.01,VWS V14.01,2013-06-14 19:25:00,
2013-06-14 15:30:00,77.7,57.6,29.84,NW,313,0.0,2.0,50,0.00,,---,0.01,VWS V14.01,2013-06-14 19:30:00,
2013-06-14 15:35:00,77.7,55.9,29.84,NW,315,0.0,6.0,47,0.00,,---,0.01,VWS V14.01,2013-06-14 19:35:00,
2013-06-14 15:40:00,77.6,55.2,29.84,NW,322,0.0,3.0,46,0.00,,---,0.01,VWS V14.01,2013-06-14 19:40:00,
2013-06-14 15:45:00,77.4,56.2,29.85,North,0,0.0,5.0,48,0.00,,---,0.01,VWS V14.01,2013-06-14 19:45:00,
2013-06-14 15:50:00,77.4,56.8,29.85,North,357,0.0,0.0,49,0.00,,---,0.01,VWS V14.01,2013-06-14 19:50:00,
2013-06-14 15:55:00,77.7,57.0,29.85,North,352,0.0,3.0,49,0.00,,---,0.01,VWS V14.01,2013-06-14 19:55:00,
2013-06-14 16:00:00,77.6,57.0,29.85,North,0,0.0,4.0,49,0.00,,---,0.01,VWS V14.01,2013-06-14 20:00:00,
2013-06-14 16:05:00,77.0,56.4,29.85,NNE,18,0.0,1.0,49,0.00,,---,0.01,VWS V14.01,2013-06-14 20:05:00,
2013-06-14 16:10:00,76.1,55.6,29.85,North,353,0.0,7.0,49,0.00,,---,0.01,VWS V14.01,2013-06-14 20:10:00,
2013-06-14 16:15:00,75.8,55.3,29.85,North,0,0.0,1.0,49,0.00,,---,0.01,VWS V14.01,2013-06-14 20:15:00,
2013-06-14 16:20:00,75.8,56.9,29.85,NNE,28,0.0,0.0,52,0.00,,---,0.01,VWS V14.01,2013-06-14 20:20:00,
2013-06-14 16:25:00,76.0,55.5,29.85,NNW,347,0.0,1.0,49,0.00,,---,0.01,VWS V14.01,2013-06-14 20:25:00,
2013-06-14 16:30:00,76.5,56.5,29.86,North,0,0.0,0.0,50,0.00,,---,0.01,VWS V14.01,2013-06-14 20:30:00,
2013-06-14 16:35:00,76.8,56.8,29.86,NNE,20,0.0,2.0,50,0.00,,---,0.01,VWS V14.01,2013-06-14 20:35:00,
2013-06-14 16:40:00,76.8,57.9,29.86,WNW,295,0.0,2.0,52,0.00,,---,0.01,VWS V14.01,2013-06-14 20:40:00,
2013-06-14 16:45:00,76.1,57.2,29.86,North,1,0.0,3.0,52,0.00,,---,0.01,VWS V14.01,2013-06-14 20:45:00,
2013-06-14 16:50:00,75.6,55.7,29.86,North,10,0.0,1.0,50,0.00,,---,0.01,VWS V14.01,2013-06-14 20:50:00,
2013-06-14 16:55:00,75.3,55.9,29.86,NNE,14,0.0,0.0,51,0.00,,---,0.01,VWS V14.01,2013-06-14 20:55:00,
2013-06-14 17:00:00,75.3,57.0,29.86,North,0,0.0,0.0,53,0.00,,---,0.01,VWS V14.01,2013-06-14 21:00:00,
2013-06-14 17:05:00,75.1,56.3,29.86,NW,316,0.0,2.0,52,0.00,,---,0.01,VWS V14.01,2013-06-14 21:05:00,
2013-06-14 17:10:00,75.3,57.0,29.86,East,100,0.0,0.0,53,0.00,,---,0.01,VWS V14.01,2013-06-14 21:10:00,
2013-06-14 17:15:00,75.6,56.8,29.86,NNW,330,0.0,3.0,52,0.00,,---,0.01,VWS V14.01,2013-06-14 21:15:00,
2013-06-14 17:20:00,75.8,55.3,29.86,NNW,347,0.0,3.0,49,0.00,,---,0.01,VWS V14.01,2013-06-14 21:20:00,
2013-06-14 17:25:00,75.8,54.2,29.86,NW,305,0.0,6.0,47,0.00,,---,0.01,VWS V14.01,2013-06-14 21:25:00,
2013-06-14 17:30:00,75.6,54.0,29.86,ENE,58,0.0,3.0,47,0.00,,---,0.01,VWS V14.01,2013-06-14 21:30:00,
2013-06-14 17:35:00,75.8,55.9,29.86,NE,56,0.0,0.0,50,0.00,,---,0.01,VWS V14.01,2013-06-14 21:35:00,
2013-06-14 17:40:00,75.4,56.6,29.86,NE,56,0.0,0.0,52,0.00,,---,0.01,VWS V14.01,2013-06-14 21:40:00,
2013-06-14 17:45:00,75.3,55.9,29.87,NNW,346,0.0,0.0,51,0.00,,---,0.01,VWS V14.01,2013-06-14 21:45:00,
2013-06-14 17:50:00,75.1,56.3,29.87,NW,319,0.0,0.0,52,0.00,,---,0.01,VWS V14.01,2013-06-14 21:50:00,
2013-06-14 17:55:00,74.9,56.6,29.87,WSW,256,0.0,0.0,53,0.00,,---,0.01,VWS V14.01,2013-06-14 21:55:00,
2013-06-14 18:00:00,74.7,55.9,29.86,WSW,256,0.0,0.0,52,0.00,,---,0.01,VWS V14.01,2013-06-14 22:00:00,
2013-06-14 18:05:00,74.9,58.2,29.86,WSW,256,0.0,0.0,56,0.00,,---,0.01,VWS V14.01,2013-06-14 22:05:00,
2013-06-14 18:10:00,74.7,57.5,29.86,NE,54,0.0,1.0,55,0.00,,---,0.01,VWS V14.01,2013-06-14 22:10:00,
2013-06-14 18:15:00,74.7,57.5,29.87,NE,54,0.0,0.0,55,0.00,,---,0.01,VWS V14.01,2013-06-14 22:15:00,
2013-06-14 18:20:00,74.6,55.3,29.87,NW,322,0.0,2.0,51,0.00,,---,0.01,VWS V14.01,2013-06-14 22:20:00,
2013-06-14 18:25:00,74.6,57.4,29.87,NW,322,0.0,0.0,55,0.00,,---,0.01,VWS V14.01,2013-06-14 22:25:00,
2013-06-14 18:30:00,74.6,55.3,29.87,NE,34,0.0,0.0,51,0.00,,---,0.01,VWS V14.01,2013-06-14 22:30:00,
2013-06-14 18:35:00,74.6,56.9,29.87,NNE,31,0.0,0.0,54,0.00,,---,0.01,VWS V14.01,2013-06-14 22:35:00,
2013-06-14 18:40:00,74.7,57.5,29.87,WNW,298,0.0,3.0,55,0.00,,---,0.01,VWS V14.01,2013-06-14 22:40:00,
2013-06-14 18:45:00,74.9,57.2,29.87,NE,54,0.0,2.0,54,0.00,,---,0.01,VWS V14.01,2013-06-14 22:45:00,
2013-06-14 18:50:00,74.7,56.5,29.87,WNW,302,0.0,0.0,53,0.00,,---,0.01,VWS V14.01,2013-06-14 22:50:00,
2013-06-14 18:55:00,74.6,56.9,29.87,NE,38,0.0,1.0,54,0.00,,---,0.01,VWS V14.01,2013-06-14 22:55:00,
2013-06-14 19:00:00,74.7,57.0,29.88,NE,38,0.0,0.0,54,0.00,,---,0.01,VWS V14.01,2013-06-14 23:00:00,
2013-06-14 19:05:00,74.7,57.5,29.88,NE,38,0.0,0.0,55,0.00,,---,0.01,VWS V14.01,2013-06-14 23:05:00,
2013-06-14 19:10:00,74.6,57.9,29.88,NE,38,0.0,0.0,56,0.00,,---,0.01,VWS V14.01,2013-06-14 23:10:00,
2013-06-14 19:15:00,74.6,57.9,29.88,NE,38,0.0,0.0,56,0.00,,---,0.01,VWS V14.01,2013-06-14 23:15:00,
2013-06-14 19:20:00,74.4,58.2,29.88,NE,42,0.0,0.0,57,0.00,,---,0.01,VWS V14.01,2013-06-14 23:20:00,
2013-06-14 19:25:00,74.4,56.7,29.88,NE,41,0.0,0.0,54,0.00,,---,0.01,VWS V14.01,2013-06-14 23:25:00,
2013-06-14 19:30:00,74.0,57.3,29.88,NE,41,0.0,0.0,56,0.00,,---,0.01,VWS V14.01,2013-06-14 23:30:00,
2013-06-14 19:35:00,73.9,58.2,29.88,NE,41,0.0,0.0,58,0.00,,---,0.01,VWS V14.01,2013-06-14 23:35:00,
2013-06-14 19:40:00,73.7,58.5,29.88,NE,41,0.0,0.0,59,0.00,,---,0.01,VWS V14.01,2013-06-14 23:40:00,
2013-06-14 19:45:00,73.5,58.8,29.88,NE,41,0.0,0.0,60,0.00,,---,0.01,VWS V14.01,2013-06-14 23:45:00,
2013-06-14 19:50:00,73.3,59.0,29.88,NE,41,0.0,0.0,61,0.00,,---,0.01,VWS V14.01,2013-06-14 23:50:00,
2013-06-14 19:55:00,73.2,59.4,29.88,NE,41,0.0,0.0,62,0.00,,---,0.01,VWS V14.01,2013-06-14 23:55:00,
2013-06-14 20:00:00,72.8,59.0,29.89,NE,41,0.0,0.0,62,0.00,,---,0.01,VWS V14.01,2013-06-15 00:00:00,
2013-06-14 20:05:00,72.5,59.6,29.89,NE,41,0.0,0.0,64,0.00,,---,0.01,VWS V14.01,2013-06-15 00:05:00,
2013-06-14 20:10:00,72.1,59.3,29.89,NE,41,0.0,0.0,64,0.00,,---,0.01,VWS V14.01,2013-06-15 00:10:00,
2013-06-14 20:15:00,71.8,59.4,29.89,NE,41,0.0,0.0,65,0.00,,---,0.01,VWS V14.01,2013-06-15 00:15:00,
2013-06-14 20:20:00,71.6,59.7,29.89,NE,41,0.0,0.0,66,0.00,,---,0.01,VWS V14.01,2013-06-15 00:20:00,
2013-06-14 20:25:00,71.1,59.6,29.89,NE,41,0.0,0.0,67,0.00,,---,0.01,VWS V14.01,2013-06-15 00:25:00,
2013-06-14 20:30:00,70.8,60.1,29.90,NE,41,0.0,0.0,69,0.00,,---,0.01,VWS V14.01,2013-06-15 00:30:00,
2013-06-14 20:35:00,70.4,59.8,29.90,NE,41,0.0,0.0,69,0.00,,---,0.01,VWS V14.01,2013-06-15 00:35:00,
2013-06-14 20:40:00,70.1,59.5,29.90,NE,41,0.0,0.0,69,0.00,,---,0.01,VWS V14.01,2013-06-15 00:40:00,
2013-06-14 20:45:00,69.8,58.8,29.91,NE,41,0.0,0.0,68,0.00,,---,0.01,VWS V14.01,2013-06-15 00:45:00,
2013-06-14 20:50:00,69.4,58.4,29.91,NE,41,0.0,0.0,68,0.00,,---,0.01,VWS V14.01,2013-06-15 00:50:00,
2013-06-14 20:55:00,69.1,58.9,29.91,NE,41,0.0,0.0,70,0.00,,---,0.01,VWS V14.01,2013-06-15 00:55:00,
2013-06-14 21:00:00,68.8,59.0,29.91,NE,41,0.0,0.0,71,0.00,,---,0.01,VWS V14.01,2013-06-15 01:00:00,
2013-06-14 21:05:00,68.6,58.8,29.91,NE,41,0.0,0.0,71,0.00,,---,0.01,VWS V14.01,2013-06-15 01:05:00,
2013-06-14 21:10:00,68.3,58.2,29.91,NE,41,0.0,0.0,70,0.00,,---,0.01,VWS V14.01,2013-06-15 01:10:00,
2013-06-14 21:15:00,68.1,58.7,29.91,NE,41,0.0,0.0,72,0.00,,---,0.01,VWS V14.01,2013-06-15 01:15:00,
2013-06-14 21:20:00,67.9,58.5,29.91,NE,41,0.0,0.0,72,0.00,,---,0.01,VWS V14.01,2013-06-15 01:20:00,
2013-06-14 21:25:00,67.6,58.7,29.91,NE,41,0.0,0.0,73,0.00,,---,0.01,VWS V14.01,2013-06-15 01:25:00,
2013-06-14 21:30:00,67.4,58.8,29.92,NE,41,0.0,0.0,74,0.00,,---,0.01,VWS V14.01,2013-06-15 01:30:00,
2013-06-14 21:35:00,67.3,59.1,29.92,NE,41,0.0,0.0,75,0.00,,---,0.01,VWS V14.01,2013-06-15 01:35:00,
2013-06-14 21:40:00,67.1,58.5,29.92,NE,41,0.0,0.0,74,0.00,,---,0.01,VWS V14.01,2013-06-15 01:40:00,
2013-06-14 21:45:00,66.9,58.3,29.92,NE,41,0.0,0.0,74,0.00,,---,0.01,VWS V14.01,2013-06-15 01:45:00,
2013-06-14 21:50:00,66.8,58.3,29.92,NE,41,0.0,0.0,74,0.00,,---,0.01,VWS V14.01,2013-06-15 01:50:00,
2013-06-14 21:55:00,66.6,58.1,29.92,NE,41,0.0,0.0,74,0.00,,---,0.01,VWS V14.01,2013-06-15 01:55:00,
2013-06-14 22:00:00,66.4,58.2,29.92,NE,41,0.0,0.0,75,0.00,,---,0.01,VWS V14.01,2013-06-15 02:00:00,
2013-06-14 22:05:00,66.3,58.2,29.92,NE,41,0.0,0.0,75,0.00,,---,0.01,VWS V14.01,2013-06-15 02:05:00,
2013-06-14 22:10:00,66.1,58.0,29.92,NE,41,0.0,0.0,75,0.00,,---,0.01,VWS V14.01,2013-06-15 02:10:00,
2013-06-14 22:15:00,66.1,58.0,29.93,NE,41,0.0,0.0,75,0.00,,---,0.01,VWS V14.01,2013-06-15 02:15:00,
2013-06-14 22:20:00,66.0,57.9,29.93,NE,41,0.0,0.0,75,0.00,,---,0.01,VWS V14.01,2013-06-15 02:20:00,
2013-06-14 22:25:00,66.0,57.5,29.93,NE,41,0.0,0.0,74,0.00,,---,0.01,VWS V14.01,2013-06-15 02:25:00,
2013-06-14 22:30:00,65.8,57.3,29.93,NE,41,0.0,0.0,74,0.00,,---,0.01,VWS V14.01,2013-06-15 02:30:00,
2013-06-14 22:35:00,65.6,57.8,29.93,NE,41,0.0,0.0,76,0.00,,---,0.01,VWS V14.01,2013-06-15 02:35:00,
2013-06-14 22:40:00,65.6,57.5,29.93,NE,41,0.0,0.0,75,0.00,,---,0.01,VWS V14.01,2013-06-15 02:40:00,
2013-06-14 22:45:00,65.5,57.4,29.94,NE,41,0.0,0.0,75,0.00,,---,0.01,VWS V14.01,2013-06-15 02:45:00,
2013-06-14 22:50:00,65.3,57.5,29.94,NE,41,0.0,0.0,76,0.00,,---,0.01,VWS V14.01,2013-06-15 02:50:00,
2013-06-14 22:55:00,65.3,57.5,29.94,NE,41,0.0,0.0,76,0.00,,---,0.01,VWS V14.01,2013-06-15 02:55:00,
2013-06-14 23:00:00,65.2,57.1,29.94,NE,41,0.0,0.0,75,0.00,,---,0.01,VWS V14.01,2013-06-15 03:00:00,
2013-06-14 23:05:00,65.2,57.1,29.94,NE,41,0.0,0.0,75,0.00,,---,0.01,VWS V14.01,2013-06-15 03:05:00,
2013-06-14 23:10:00,65.2,56.7,29.94,NE,41,0.0,0.0,74,0.00,,---,0.01,VWS V14.01,2013-06-15 03:10:00,
2013-06-14 23:15:00,65.0,56.9,29.94,NE,41,0.0,0.0,75,0.00,,---,0.01,VWS V14.01,2013-06-15 03:15:00,
2013-06-14 23:20:00,64.8,57.4,29.94,NE,41,0.0,0.0,77,0.00,,---,0.01,VWS V14.01,2013-06-15 03:20:00,
2013-06-14 23:25:00,64.8,57.4,29.94,NE,41,0.0,0.0,77,0.00,,---,0.01,VWS V14.01,2013-06-15 03:25:00,
2013-06-14 23:30:00,64.8,57.4,29.94,NE,41,0.0,0.0,77,0.00,,---,0.01,VWS V14.01,2013-06-15 03:30:00,
2013-06-14 23:35:00,64.7,57.7,29.95,NE,41,0.0,0.0,78,0.00,,---,0.01,VWS V14.01,2013-06-15 03:35:00,
2013-06-14 23:40:00,64.7,57.7,29.95,NE,41,0.0,0.0,78,0.00,,---,0.01,VWS V14.01,2013-06-15 03:40:00,
2013-06-14 23:45:00,64.5,57.5,29.95,NE,41,0.0,0.0,78,0.00,,---,0.01,VWS V14.01,2013-06-15 03:45:00,
2013-06-14 23:50:00,64.5,57.5,29.95,NE,41,0.0,0.0,78,0.00,,---,0.01,VWS V14.01,2013-06-15 03:50:00,
2013-06-14 23:55:00,64.3,57.3,29.95,NE,41,0.0,0.0,78,0.00,,---,0.01,VWS V14.01,2013-06-15 03:55:00,